Simultaneous Nadir Overpasses (SNOs) Predictions

Prediction of SNOs between METOP-B and NOAA-19 Satellite Orbit:

Table of predicted SNOs for the next 14.0 days since TLE Epoch: 6/8/2024
Index Date (METOP-B) Time (METOP-B) Lat,Lon (METOP-B) SZA (METOP-B ) Date (NOAA-19) Time (NOAA-19) Lat,Lon (NOAA-19) SZA (NOAA-19 ) Distance(km) Time Diff (sec)
1 06/19/2024 07:21:18 66.88, 50.84 44.99 06/19/2024 07:20:08 66.89, 50.86 45.04 1.15 70
2 06/19/2024 08:11:41 -67.95,-140.58 134.22 06/19/2024 08:10:48 -67.98,-140.54 134.18 2.98 53
3 06/19/2024 09:02:01 68.96, 28.06 46.54 06/19/2024 09:01:27 68.96, 28.07 46.56 0.45 34
4 06/19/2024 09:52:29 -69.74,-163.53 132.86 06/19/2024 09:52:13 -69.71,-163.57 132.87 2.88 16
5 06/19/2024 10:42:50 70.68, 5.25 47.89 06/19/2024 10:42:52 70.68, 5.26 47.89 0.16 2
6 06/19/2024 11:33:20 -71.33, 173.66 131.59 06/19/2024 11:33:40 -71.31, 173.62 131.61 2.05 20
7 06/19/2024 12:23:44 72.11, -17.60 49.05 06/19/2024 12:24:22 72.11, -17.60 49.04 0.20 38
8 06/19/2024 13:14:16 -72.63, 150.75 130.51 06/19/2024 13:15:12 -72.62, 150.73 130.53 1.11 56



Historial Predications of SNOs between METOP-B and NOAA-19
